Time,TemperatureF,DewpointF,PressureIn,WindDirection,WindDirectionDegrees,WindSpeedMPH,WindSpeedGustMPH,Humidity,HourlyPrecipIn,Conditions,Clouds,dailyrainin,SoftwareType,DateUTC
2013-06-08 00:02:00,53.0,50.0,29.93,North,0,0.0,0.0,90,0.00,,,0.00,,2013-06-08 05:02:00,
2013-06-08 00:12:00,53.0,50.0,29.93,North,0,0.0,0.0,90,0.00,,,0.00,,2013-06-08 05:12:00,
2013-06-08 00:22:00,53.0,50.0,29.92,North,0,0.0,0.0,90,0.00,,,0.00,,2013-06-08 05:22:00,
2013-06-08 00:32:00,53.0,50.0,29.92,North,0,0.0,0.0,90,0.00,,,0.00,,2013-06-08 05:32:00,
2013-06-08 00:42:00,53.0,50.0,29.92,North,0,0.0,0.0,90,0.00,,,0.00,,2013-06-08 05:42:00,
2013-06-08 00:52:00,53.0,50.0,29.92,North,0,0.0,0.0,91,0.00,,,0.00,,2013-06-08 05:52:00,
2013-06-08 01:02:00,52.0,49.0,29.93,North,0,0.0,0.0,91,0.00,,,0.00,,2013-06-08 06:02:00,
2013-06-08 01:12:00,52.0,49.0,29.93,North,0,0.0,0.0,91,0.00,,,0.00,,2013-06-08 06:12:00,
2013-06-08 01:22:00,52.0,49.0,29.93,North,0,0.0,0.0,91,0.00,,,0.00,,2013-06-08 06:22:00,
2013-06-08 01:32:00,52.0,49.0,29.93,North,0,0.0,0.0,91,0.00,,,0.00,,2013-06-08 06:32:00,
2013-06-08 01:42:00,52.0,49.0,29.93,North,0,0.0,0.0,91,0.00,,,0.00,,2013-06-08 06:42:00,
2013-06-08 01:52:00,52.0,49.0,29.93,North,0,0.0,0.0,91,0.00,,,0.00,,2013-06-08 06:52:00,
2013-06-08 02:02:00,51.0,49.0,29.92,North,0,0.0,0.0,92,0.00,,,0.00,,2013-06-08 07:02:00,
2013-06-08 02:12:00,51.0,49.0,29.92,North,0,0.0,0.0,92,0.00,,,0.00,,2013-06-08 07:12:00,
2013-06-08 02:22:00,51.0,49.0,29.92,North,0,0.0,0.0,92,0.00,,,0.00,,2013-06-08 07:22:00,
2013-06-08 02:32:00,52.0,50.0,29.91,North,0,0.0,0.0,92,0.00,,,0.00,,2013-06-08 07:32:00,
2013-06-08 02:42:00,52.0,50.0,29.91,North,0,0.0,0.0,92,0.00,,,0.00,,2013-06-08 07:42:00,
2013-06-08 02:52:00,52.0,50.0,29.91,North,0,0.0,0.0,92,0.00,,,0.00,,2013-06-08 07:52:00,
2013-06-08 03:02:00,52.0,50.0,29.91,North,0,0.0,0.0,92,0.00,,,0.00,,2013-06-08 08:02:00,
2013-06-08 03:12:00,52.0,50.0,29.91,North,0,0.0,0.0,92,0.00,,,0.00,,2013-06-08 08:12:00,
2013-06-08 03:22:00,51.0,49.0,29.90,North,0,0.0,0.0,92,0.00,,,0.00,,2013-06-08 08:22:00,
2013-06-08 03:32:00,51.0,48.0,29.90,North,0,0.0,0.0,91,0.00,,,0.00,,2013-06-08 08:32:00,
2013-06-08 03:42:00,51.0,48.0,29.90,North,0,0.0,0.0,91,0.00,,,0.00,,2013-06-08 08:42:00,
2013-06-08 03:53:00,51.0,49.0,29.91,North,0,0.0,0.0,92,0.00,,,0.00,,2013-06-08 08:53:00,
2013-06-08 04:02:00,50.0,47.0,29.91,North,0,0.0,0.0,91,0.00,,,0.00,,2013-06-08 09:02:00,
2013-06-08 04:12:00,50.0,47.0,29.91,North,0,0.0,0.0,91,0.00,,,0.00,,2013-06-08 09:12:00,
2013-06-08 04:22:00,50.0,48.0,29.91,North,0,0.0,0.0,92,0.00,,,0.00,,2013-06-08 09:22:00,
2013-06-08 04:33:00,50.0,48.0,29.91,North,0,0.0,0.0,92,0.00,,,0.00,,2013-06-08 09:33:00,
2013-06-08 04:43:00,50.0,48.0,29.91,North,0,0.0,0.0,92,0.00,,,0.00,,2013-06-08 09:43:00,
2013-06-08 04:53:00,50.0,48.0,29.90,North,0,0.0,0.0,92,0.00,,,0.00,,2013-06-08 09:53:00,
2013-06-08 05:02:00,50.0,48.0,29.91,North,0,0.0,0.0,92,0.00,,,0.00,,2013-06-08 10:02:00,
2013-06-08 05:12:00,50.0,48.0,29.91,North,0,0.0,0.0,92,0.00,,,0.00,,2013-06-08 10:12:00,
2013-06-08 05:22:00,49.0,47.0,29.90,North,0,0.0,0.0,92,0.00,,,0.00,,2013-06-08 10:22:00,
2013-06-08 05:33:00,49.0,47.0,29.90,North,0,0.0,0.0,92,0.00,,,0.00,,2013-06-08 10:33:00,
2013-06-08 05:42:00,49.0,47.0,29.90,North,0,0.0,0.0,92,0.00,,,0.00,,2013-06-08 10:42:00,
2013-06-08 05:53:00,49.0,47.0,29.91,North,0,0.0,0.0,92,0.00,,,0.00,,2013-06-08 10:53:00,
2013-06-08 06:02:00,49.0,47.0,29.91,North,0,0.0,0.0,92,0.00,,,0.00,,2013-06-08 11:02:00,
2013-06-08 06:12:00,49.0,47.0,29.91,North,0,0.0,0.0,92,0.00,,,0.00,,2013-06-08 11:12:00,
2013-06-08 06:22:00,49.0,47.0,29.91,North,0,0.0,0.0,92,0.00,,,0.00,,2013-06-08 11:22:00,
2013-06-08 06:32:00,49.0,47.0,29.91,North,0,0.0,0.0,92,0.00,,,0.00,,2013-06-08 11:32:00,
2013-06-08 06:42:00,49.0,47.0,29.91,North,0,0.0,0.0,92,0.00,,,0.00,,2013-06-08 11:42:00,
2013-06-08 06:52:00,49.0,47.0,29.91,North,0,0.0,0.0,92,0.00,,,0.00,,2013-06-08 11:52:00,
2013-06-08 07:02:00,51.0,49.0,29.92,North,0,0.0,1.0,93,0.00,,,0.00,,2013-06-08 12:02:00,
2013-06-08 07:12:00,51.0,49.0,29.92,North,0,0.0,1.0,93,0.00,,,0.00,,2013-06-08 12:12:00,
2013-06-08 07:22:00,53.0,51.0,29.92,North,0,0.0,0.0,93,0.00,,,0.00,,2013-06-08 12:22:00,
2013-06-08 07:32:00,55.0,53.0,29.92,SW,223,1.0,3.0,93,0.00,,,0.00,,2013-06-08 12:32:00,
2013-06-08 07:42:00,55.0,53.0,29.92,SW,223,1.0,3.0,93,0.00,,,0.00,,2013-06-08 12:42:00,
2013-06-08 07:52:00,57.0,55.0,29.91,South,187,1.0,4.0,93,0.00,,,0.00,,2013-06-08 12:52:00,
2013-06-08 08:02:00,60.0,55.0,29.91,SE,125,3.0,7.0,84,0.00,,,0.00,,2013-06-08 13:02:00,
2013-06-08 08:12:00,60.0,55.0,29.91,SE,125,3.0,7.0,84,0.00,,,0.00,,2013-06-08 13:12:00,
2013-06-08 08:22:00,61.0,54.0,29.91,ESE,119,2.0,5.0,79,0.00,,,0.00,,2013-06-08 13:22:00,
2013-06-08 08:32:00,63.0,55.0,29.92,ESE,120,2.0,5.0,76,0.00,,,0.00,,2013-06-08 13:32:00,
2013-06-08 08:42:00,63.0,55.0,29.92,ESE,120,2.0,5.0,76,0.00,,,0.00,,2013-06-08 13:42:00,
2013-06-08 08:52:00,66.0,56.0,29.92,SW,220,2.0,5.0,71,0.00,,,0.00,,2013-06-08 13:52:00,
2013-06-08 09:02:00,65.0,56.0,29.91,South,184,3.0,6.0,72,0.00,,,0.00,,2013-06-08 14:02:00,
2013-06-08 09:12:00,65.0,56.0,29.91,South,184,3.0,6.0,72,0.00,,,0.00,,2013-06-08 14:12:00,
2013-06-08 09:22:00,66.0,56.0,29.92,SE,145,4.0,7.0,71,0.00,,,0.00,,2013-06-08 14:22:00,
2013-06-08 09:32:00,66.0,56.0,29.93,South,189,3.0,7.0,71,0.00,,,0.00,,2013-06-08 14:32:00,
2013-06-08 09:42:00,66.0,56.0,29.93,South,189,3.0,7.0,71,0.00,,,0.00,,2013-06-08 14:42:00,
2013-06-08 09:52:00,66.0,56.0,29.93,SE,138,5.0,9.0,70,0.00,,,0.00,,2013-06-08 14:52:00,
2013-06-08 10:02:00,67.0,56.0,29.92,SE,139,5.0,10.0,69,0.00,,,0.00,,2013-06-08 15:02:00,
2013-06-08 10:12:00,67.0,56.0,29.92,SE,139,5.0,10.0,69,0.00,,,0.00,,2013-06-08 15:12:00,
2013-06-08 10:22:00,68.0,56.0,29.92,SSE,159,5.0,9.0,65,0.00,,,0.00,,2013-06-08 15:22:00,
2013-06-08 10:32:00,69.0,56.0,29.93,SSW,192,5.0,10.0,63,0.00,,,0.00,,2013-06-08 15:32:00,
2013-06-08 10:42:00,69.0,56.0,29.93,SSW,192,5.0,10.0,63,0.00,,,0.00,,2013-06-08 15:42:00,
2013-06-08 10:53:00,70.0,56.0,29.92,SE,137,4.0,13.0,62,0.00,,,0.00,,2013-06-08 15:53:00,
2013-06-08 11:03:00,70.0,55.0,29.93,South,182,4.0,11.0,60,0.00,,,0.00,,2013-06-08 16:03:00,
2013-06-08 11:12:00,70.0,55.0,29.93,South,182,4.0,11.0,60,0.00,,,0.00,,2013-06-08 16:12:00,
2013-06-08 11:23:00,70.0,55.0,29.92,SE,139,6.0,11.0,60,0.00,,,0.00,,2013-06-08 16:23:00,
2013-06-08 11:32:00,70.0,55.0,29.91,SW,221,5.0,11.0,58,0.00,,,0.00,,2013-06-08 16:32:00,
2013-06-08 11:42:00,70.0,55.0,29.91,SW,221,5.0,11.0,58,0.00,,,0.00,,2013-06-08 16:42:00,
2013-06-08 11:53:00,71.0,55.0,29.91,SSW,202,3.0,12.0,57,0.00,,,0.00,,2013-06-08 16:53:00,
2013-06-08 12:02:00,71.0,55.0,29.90,SE,142,6.0,10.0,58,0.00,,,0.00,,2013-06-08 17:02:00,
2013-06-08 12:12:00,71.0,55.0,29.90,SE,142,6.0,10.0,58,0.00,,,0.00,,2013-06-08 17:12:00,
2013-06-08 12:22:00,71.0,55.0,29.90,South,186,7.0,10.0,58,0.00,,,0.00,,2013-06-08 17:22:00,
2013-06-08 12:32:00,71.0,54.0,29.91,SE,134,6.0,11.0,54,0.00,,,0.00,,2013-06-08 17:32:00,
2013-06-08 12:42:00,71.0,54.0,29.91,SE,134,6.0,11.0,54,0.00,,,0.00,,2013-06-08 17:42:00,
2013-06-08 12:52:00,72.0,54.0,29.90,SE,138,7.0,12.0,53,0.00,,,0.00,,2013-06-08 17:52:00,
2013-06-08 13:02:00,72.0,54.0,29.90,SSE,167,5.0,10.0,53,0.00,,,0.00,,2013-06-08 18:02:00,
2013-06-08 13:12:00,72.0,54.0,29.90,SSE,167,5.0,10.0,53,0.00,,,0.00,,2013-06-08 18:12:00,
2013-06-08 13:22:00,72.0,55.0,29.90,SSE,149,3.0,13.0,55,0.00,,,0.00,,2013-06-08 18:22:00,
2013-06-08 13:32:00,72.0,56.0,29.90,SSE,155,5.0,11.0,57,0.00,,,0.00,,2013-06-08 18:32:00,
2013-06-08 13:42:00,72.0,56.0,29.90,SSE,155,5.0,11.0,57,0.00,,,0.00,,2013-06-08 18:42:00,
2013-06-08 13:52:00,73.0,56.0,29.89,South,182,4.0,9.0,55,0.00,,,0.00,,2013-06-08 18:52:00,
2013-06-08 14:02:00,73.0,55.0,29.88,South,178,6.0,12.0,54,0.00,,,0.00,,2013-06-08 19:02:00,
2013-06-08 14:12:00,73.0,55.0,29.88,South,178,6.0,12.0,54,0.00,,,0.00,,2013-06-08 19:12:00,
2013-06-08 14:22:00,74.0,57.0,29.88,South,187,4.0,10.0,55,0.00,,,0.00,,2013-06-08 19:22:00,
2013-06-08 14:32:00,74.0,55.0,29.88,South,178,5.0,13.0,51,0.00,,,0.00,,2013-06-08 19:32:00,
2013-06-08 14:42:00,74.0,55.0,29.88,South,178,5.0,13.0,51,0.00,,,0.00,,2013-06-08 19:42:00,
2013-06-08 14:52:00,74.0,56.0,29.88,SE,127,4.0,12.0,53,0.00,,,0.00,,2013-06-08 19:52:00,
2013-06-08 15:02:00,74.0,55.0,29.87,SE,142,5.0,11.0,52,0.00,,,0.00,,2013-06-08 20:02:00,
2013-06-08 15:12:00,74.0,55.0,29.87,SE,142,5.0,11.0,52,0.00,,,0.00,,2013-06-08 20:12:00,
2013-06-08 15:22:00,73.0,55.0,29.86,SE,136,6.0,11.0,54,0.00,,,0.00,,2013-06-08 20:22:00,
2013-06-08 15:32:00,73.0,55.0,29.87,SSE,160,5.0,11.0,54,0.00,,,0.00,,2013-06-08 20:32:00,
2013-06-08 15:42:00,73.0,55.0,29.87,SSE,160,5.0,11.0,54,0.00,,,0.00,,2013-06-08 20:42:00,
2013-06-08 15:52:00,73.0,56.0,29.87,SE,138,5.0,12.0,55,0.00,,,0.00,,2013-06-08 20:52:00,
2013-06-08 16:02:00,73.0,56.0,29.86,SE,128,3.0,11.0,56,0.00,,,0.00,,2013-06-08 21:02:00,
2013-06-08 16:12:00,73.0,56.0,29.86,SE,128,3.0,11.0,56,0.00,,,0.00,,2013-06-08 21:12:00,
2013-06-08 16:22:00,73.0,56.0,29.86,SE,135,3.0,6.0,56,0.00,,,0.00,,2013-06-08 21:22:00,
2013-06-08 16:33:00,73.0,56.0,29.85,ESE,110,5.0,11.0,56,0.00,,,0.00,,2013-06-08 21:33:00,
2013-06-08 16:43:00,73.0,56.0,29.85,ESE,110,5.0,11.0,56,0.00,,,0.00,,2013-06-08 21:43:00,
2013-06-08 16:52:00,73.0,57.0,29.86,SSE,148,1.0,7.0,58,0.00,,,0.00,,2013-06-08 21:52:00,
2013-06-08 17:02:00,73.0,56.0,29.86,SE,131,5.0,9.0,55,0.00,,,0.00,,2013-06-08 22:02:00,
2013-06-08 17:12:00,73.0,56.0,29.86,SE,132,3.0,9.0,56,0.00,,,0.00,,2013-06-08 22:12:00,
2013-06-08 17:22:00,73.0,56.0,29.86,SE,132,3.0,9.0,56,0.00,,,0.00,,2013-06-08 22:22:00,
2013-06-08 17:33:00,72.0,56.0,29.87,SE,128,2.0,6.0,57,0.00,,,0.00,,2013-06-08 22:33:00,
2013-06-08 17:42:00,72.0,57.0,29.85,ESE,120,5.0,9.0,59,0.00,,,0.00,,2013-06-08 22:42:00,
2013-06-08 17:52:00,72.0,57.0,29.85,ESE,120,5.0,9.0,59,0.00,,,0.00,,2013-06-08 22:52:00,
2013-06-08 18:02:00,72.0,55.0,29.85,ESE,115,6.0,11.0,56,0.00,,,0.00,,2013-06-08 23:02:00,
2013-06-08 18:12:00,72.0,55.0,29.84,ESE,112,6.0,10.0,55,0.00,,,0.00,,2013-06-08 23:12:00,
2013-06-08 18:22:00,72.0,55.0,29.84,ESE,112,6.0,10.0,55,0.00,,,0.00,,2013-06-08 23:22:00,
2013-06-08 18:32:00,72.0,55.0,29.83,ESE,113,6.0,11.0,55,0.00,,,0.00,,2013-06-08 23:32:00,
2013-06-08 18:42:00,72.0,55.0,29.83,ESE,113,6.0,11.0,55,0.00,,,0.00,,2013-06-08 23:42:00,
2013-06-08 18:52:00,72.0,55.0,29.83,ESE,113,6.0,11.0,55,0.00,,,0.00,,2013-06-08 23:52:00,
2013-06-08 19:02:00,71.0,54.0,29.85,ESE,119,1.0,2.0,56,0.00,,,0.00,,2013-06-09 00:02:00,
2013-06-08 19:12:00,71.0,54.0,29.85,ESE,119,1.0,2.0,56,0.00,,,0.00,,2013-06-09 00:12:00,
2013-06-08 19:22:00,71.0,55.0,29.83,ESE,104,5.0,7.0,58,0.00,,,0.00,,2013-06-09 00:22:00,
2013-06-08 19:32:00,71.0,55.0,29.83,ESE,107,4.0,9.0,58,0.00,,,0.00,,2013-06-09 00:32:00,
2013-06-08 19:42:00,71.0,55.0,29.83,ESE,107,4.0,9.0,58,0.00,,,0.00,,2013-06-09 00:42:00,
2013-06-08 19:52:00,71.0,55.0,29.83,ESE,105,4.0,8.0,58,0.00,,,0.00,,2013-06-09 00:52:00,
2013-06-08 20:02:00,71.0,56.0,29.83,ESE,108,3.0,8.0,59,0.00,,,0.00,,2013-06-09 01:02:00,
2013-06-08 20:12:00,71.0,56.0,29.82,ESE,104,3.0,8.0,59,0.00,,,0.00,,2013-06-09 01:12:00,
2013-06-08 20:22:00,71.0,56.0,29.82,ESE,104,3.0,8.0,59,0.00,,,0.00,,2013-06-09 01:22:00,
2013-06-08 20:32:00,71.0,56.0,29.82,East,100,4.0,7.0,60,0.00,,,0.00,,2013-06-09 01:32:00,
2013-06-08 20:42:00,71.0,56.0,29.82,East,100,4.0,7.0,60,0.00,,,0.00,,2013-06-09 01:42:00,
2013-06-08 20:52:00,70.0,56.0,29.83,ESE,110,2.0,6.0,62,0.00,,,0.00,,2013-06-09 01:52:00,
2013-06-08 21:02:00,70.0,56.0,29.83,ESE,105,2.0,5.0,62,0.00,,,0.00,,2013-06-09 02:02:00,
2013-06-08 21:12:00,70.0,56.0,29.83,ESE,105,2.0,5.0,62,0.00,,,0.00,,2013-06-09 02:12:00,
2013-06-08 21:22:00,70.0,57.0,29.83,ESE,107,3.0,5.0,64,0.00,,,0.00,,2013-06-09 02:22:00,
2013-06-08 21:32:00,69.0,57.0,29.82,ESE,106,5.0,8.0,65,0.00,,,0.00,,2013-06-09 02:32:00,
2013-06-08 21:42:00,69.0,57.0,29.82,ESE,106,5.0,8.0,65,0.00,,,0.00,,2013-06-09 02:42:00,
2013-06-08 21:52:00,69.0,56.0,29.81,ESE,106,6.0,11.0,64,0.00,,,0.00,,2013-06-09 02:52:00,
2013-06-08 22:02:00,69.0,56.0,29.82,ESE,118,7.0,13.0,63,0.00,,,0.00,,2013-06-09 03:02:00,
2013-06-08 22:12:00,69.0,56.0,29.82,ESE,118,7.0,13.0,63,0.00,,,0.00,,2013-06-09 03:12:00,
2013-06-08 22:22:00,69.0,56.0,29.81,ESE,113,7.0,13.0,63,0.00,,,0.00,,2013-06-09 03:22:00,
2013-06-08 22:33:00,69.0,56.0,29.82,ESE,117,6.0,16.0,63,0.00,,,0.00,,2013-06-09 03:33:00,
2013-06-08 22:43:00,69.0,56.0,29.82,ESE,117,6.0,16.0,63,0.00,,,0.00,,2013-06-09 03:43:00,
2013-06-08 22:53:00,69.0,55.0,29.82,ESE,114,8.0,16.0,62,0.00,,,0.00,,2013-06-09 03:53:00,
2013-06-08 23:02:00,69.0,56.0,29.81,SE,126,7.0,11.0,63,0.00,,,0.00,,2013-06-09 04:02:00,
2013-06-08 23:12:00,69.0,56.0,29.81,SE,126,7.0,11.0,63,0.00,,,0.00,,2013-06-09 04:12:00,
2013-06-08 23:22:00,69.0,55.0,29.82,ESE,119,6.0,12.0,62,0.00,,,0.00,,2013-06-09 04:22:00,
2013-06-08 23:33:00,69.0,55.0,29.81,SE,127,8.0,14.0,62,0.00,,,0.00,,2013-06-09 04:33:00,
2013-06-08 23:42:00,69.0,55.0,29.81,SE,127,8.0,14.0,62,0.00,,,0.00,,2013-06-09 04:42:00,
2013-06-08 23:53:00,69.0,55.0,29.81,SE,127,8.0,14.0,62,0.00,,,0.00,,2013-06-09 04:53:00,